Weather History for KVKY - February, 2014

Change the Weather History Date:

Friday, February 7, 2014

  Actual Average Record
Temperature  
Mean Temperature 54 °F -  
Max Temperature 59 °F - - ()
Min Temperature 48 °F - - ()
Degree Days  
Heating Degree Days 12    
Growing Degree Days 4 (Base 50)    
Moisture  
Dew Point 43 °F    
Average Humidity 73    
Maximum Humidity 82    
Minimum Humidity 63    
Precipitation  
Precipitation 0.00 in - - ()
Sea Level Pressure  
Sea Level Pressure 30.23 in    
Wind  
Wind Speed 19 mph (ESE)    
Max Wind Speed 23 mph    
Max Gust Speed 26 mph    
Visibility 10 miles    
Events      
T = Trace of Precipitation, MM = Missing Value Source: NWS Daily Summary

Daily Weather History Graph

Daily Weather History Graph

Search for Another Location

Airport or City:

Trip Planner

Search our weather history database for the weather conditions in past years. The results will help you decide how hot, cold, wet, or windy it might be!

Date:

Astronomy

Feb. 07, 2014 Rise Set
Actual Time 6:38 AM CST 5:37 PM CST
Civil Twilight 6:14 AM CST 6:01 PM CST
Nautical Twilight 5:46 AM CST 6:29 PM CST
Astronomical Twilight 5:18 AM CST 6:57 PM CST
Moon 11:53 AM CST (2/7) 12:51 AM CST (2/7)
Length of Visible Light 11h 47m
Length of Day
10h 58m
First Quarter, 59% of the Moon is Illuminated
Feb 7
First Quarter
Feb 14
Full
Feb 22
Last Quarter
Mar 1
New
Mar 8
First Quarter

Hourly Weather History & Observations

Time (CST) Temp. Dew Point Humidity Pressure Visibility Wind Dir Wind Speed Gust Speed Precip Events Conditions
12:15 AM 48.2 °F 41.0 °F 76% 30.25 in 10.0 mi East 20.7 mph - N/A   Overcast
12:35 AM 48.2 °F 41.0 °F 76% 30.25 in 10.0 mi East 20.7 mph - N/A   Overcast
12:55 AM 48.2 °F 41.0 °F 76% 30.24 in 10.0 mi East 20.7 mph - N/A   Mostly Cloudy
1:15 AM 48.2 °F 41.0 °F 76% 30.24 in 10.0 mi East 21.9 mph - N/A   Mostly Cloudy
1:35 AM 48.2 °F 41.0 °F 76% 30.23 in 10.0 mi ESE 20.7 mph - N/A   Overcast
1:55 AM 48.2 °F 41.0 °F 76% 30.23 in 10.0 mi ESE 21.9 mph - N/A   Overcast
2:15 AM 48.2 °F 41.0 °F 76% 30.24 in 10.0 mi ESE 20.7 mph - N/A   Overcast
2:35 AM 48.2 °F 41.0 °F 76% 30.24 in 10.0 mi East 20.7 mph - N/A   Overcast
2:55 AM 48.2 °F 41.0 °F 76% 30.24 in 10.0 mi East 20.7 mph - N/A   Overcast
3:15 AM 48.2 °F 41.0 °F 76% 30.24 in 10.0 mi East 20.7 mph - N/A   Overcast
3:35 AM 48.2 °F 41.0 °F 76% 30.25 in 10.0 mi East 19.6 mph - N/A   Overcast
3:55 AM 48.2 °F 42.8 °F 82% 30.25 in 10.0 mi East 18.4 mph 24.2 mph N/A   Overcast
4:15 AM 48.2 °F 42.8 °F 82% 30.26 in 10.0 mi East 16.1 mph 24.2 mph N/A   Overcast
4:35 AM 48.2 °F 41.0 °F 76% 30.24 in 10.0 mi East 21.9 mph - N/A   Overcast
4:55 AM 48.2 °F 42.8 °F 82% 30.23 in 10.0 mi East 23.0 mph - N/A   Overcast
5:15 AM 48.2 °F 41.0 °F 76% 30.25 in 10.0 mi East 16.1 mph 25.3 mph N/A   Overcast
5:35 AM 48.2 °F 41.0 °F 76% 30.25 in 10.0 mi East 20.7 mph - N/A   Overcast
5:55 AM 48.2 °F 41.0 °F 76% 30.26 in 10.0 mi East 18.4 mph 25.3 mph N/A   Overcast
6:15 AM 48.2 °F 41.0 °F 76% 30.25 in 10.0 mi East 19.6 mph - N/A   Overcast
6:35 AM 48.2 °F 41.0 °F 76% 30.26 in - East 19.6 mph 25.3 mph N/A   Overcast
6:55 AM 48.2 °F 41.0 °F 76% 30.26 in 10.0 mi ESE 20.7 mph - N/A   Overcast
7:15 AM 48.2 °F 41.0 °F 76% 30.27 in 10.0 mi ESE 15.0 mph 21.9 mph N/A   Overcast
7:35 AM 48.2 °F 42.8 °F 82% 30.27 in 10.0 mi ESE 19.6 mph - N/A   Overcast
7:55 AM 48.2 °F 41.0 °F 76% 30.27 in 10.0 mi ESE 17.3 mph - N/A   Overcast
8:15 AM 48.2 °F 42.8 °F 82% 30.28 in 10.0 mi ESE 17.3 mph - N/A   Overcast
8:35 AM 50.0 °F 42.8 °F 76% 30.28 in 10.0 mi ESE 18.4 mph - N/A   Overcast
8:55 AM 50.0 °F 42.8 °F 76% 30.28 in 10.0 mi ESE 17.3 mph 24.2 mph N/A   Overcast
9:15 AM 50.0 °F 42.8 °F 76% 30.29 in 10.0 mi East 18.4 mph - N/A   Overcast
9:35 AM 50.0 °F 42.8 °F 76% 30.29 in 10.0 mi East 17.3 mph - N/A   Overcast
9:55 AM 50.0 °F 42.8 °F 76% 30.29 in 10.0 mi ESE 16.1 mph 21.9 mph N/A   Overcast
10:15 AM 51.8 °F 42.8 °F 71% 30.30 in 10.0 mi ESE 16.1 mph 21.9 mph N/A   Overcast
10:35 AM 51.8 °F 42.8 °F 71% 30.30 in 10.0 mi East 16.1 mph - N/A   Overcast
10:55 AM 51.8 °F 42.8 °F 71% 30.30 in 10.0 mi East 17.3 mph - N/A   Overcast
11:15 AM 51.8 °F 42.8 °F 71% 30.28 in 10.0 mi East 16.1 mph - N/A   Overcast
11:35 AM 51.8 °F 42.8 °F 71% 30.28 in 10.0 mi ESE 13.8 mph 21.9 mph N/A   Overcast
11:55 AM 51.8 °F 42.8 °F 71% 30.27 in 10.0 mi East 15.0 mph 23.0 mph N/A   Overcast
12:15 PM 51.8 °F 42.8 °F 71% 30.25 in 10.0 mi East 16.1 mph - N/A   Overcast
12:35 PM 51.8 °F 44.6 °F 76% 30.25 in 10.0 mi East 16.1 mph 23.0 mph N/A   Overcast
12:55 PM 51.8 °F 42.8 °F 71% 30.24 in 10.0 mi East 15.0 mph 21.9 mph N/A   Overcast
1:15 PM 51.8 °F 44.6 °F 76% 30.23 in 10.0 mi East 16.1 mph 23.0 mph N/A   Overcast
1:35 PM 51.8 °F 42.8 °F 71% 30.21 in 10.0 mi East 18.4 mph 26.5 mph N/A   Overcast
1:55 PM 51.8 °F 44.6 °F 76% 30.21 in 10.0 mi ESE 16.1 mph 21.9 mph N/A   Overcast
2:15 PM 51.8 °F 42.8 °F 71% 30.20 in 10.0 mi ESE 18.4 mph - N/A   Overcast
2:35 PM 51.8 °F 42.8 °F 71% 30.20 in 10.0 mi ESE 18.4 mph - N/A   Mostly Cloudy
2:55 PM 51.8 °F 44.6 °F 76% 30.20 in 10.0 mi East 17.3 mph - N/A   Mostly Cloudy
3:15 PM 51.8 °F 44.6 °F 76% 30.20 in 10.0 mi ESE 16.1 mph - N/A   Mostly Cloudy
3:35 PM 51.8 °F 42.8 °F 71% 30.20 in 10.0 mi ESE 15.0 mph - N/A   Overcast
3:55 PM 51.8 °F 44.6 °F 76% 30.21 in 10.0 mi East 13.8 mph - N/A   Mostly Cloudy
4:15 PM 51.8 °F 44.6 °F 76% 30.20 in 10.0 mi East 15.0 mph - N/A   Mostly Cloudy
4:35 PM 51.8 °F 42.8 °F 71% 30.20 in 10.0 mi ESE 16.1 mph - N/A   Overcast
4:55 PM 51.8 °F 42.8 °F 71% 30.20 in 10.0 mi ESE 16.1 mph - N/A   Overcast
5:15 PM 51.8 °F 42.8 °F 71% 30.20 in 10.0 mi SE 15.0 mph - N/A   Overcast
5:35 PM 53.6 °F 42.8 °F 67% 30.20 in 10.0 mi ESE 18.4 mph - N/A   Overcast
5:55 PM 53.6 °F 42.8 °F 67% 30.19 in 10.0 mi ESE 18.4 mph - N/A   Overcast
6:15 PM 53.6 °F 42.8 °F 67% 30.19 in 10.0 mi ESE 17.3 mph - N/A   Overcast
6:35 PM 53.6 °F 42.8 °F 67% 30.20 in 10.0 mi ESE 17.3 mph - N/A   Overcast
6:55 PM 55.4 °F 44.6 °F 67% 30.20 in 10.0 mi ESE 16.1 mph 23.0 mph N/A   Overcast
7:15 PM 55.4 °F 44.6 °F 67% 30.20 in 10.0 mi ESE 18.4 mph - N/A   Overcast
7:35 PM 55.4 °F 44.6 °F 67% 30.22 in 10.0 mi ESE 13.8 mph - N/A   Overcast
7:55 PM 55.4 °F 44.6 °F 67% 30.22 in 10.0 mi ESE 16.1 mph - N/A   Overcast
8:15 PM 55.4 °F 44.6 °F 67% 30.21 in 10.0 mi ESE 17.3 mph - N/A   Overcast
8:35 PM 55.4 °F 44.6 °F 67% 30.21 in 10.0 mi ESE 11.5 mph - N/A   Overcast
8:55 PM 55.4 °F 44.6 °F 67% 30.22 in 10.0 mi SE 15.0 mph - N/A   Overcast
9:15 PM 57.2 °F 44.6 °F 63% 30.21 in 10.0 mi SE 16.1 mph - N/A   Overcast
9:35 PM 57.2 °F 44.6 °F 63% 30.19 in 10.0 mi SE 13.8 mph 19.6 mph N/A   Overcast
9:55 PM 57.2 °F 44.6 °F 63% 30.20 in 10.0 mi SE 16.1 mph - N/A   Overcast
10:15 PM 57.2 °F 46.4 °F 67% 30.19 in 10.0 mi SE 15.0 mph - N/A   Overcast
10:35 PM 57.2 °F 46.4 °F 67% 30.18 in 10.0 mi SE 16.1 mph - N/A   Mostly Cloudy
10:55 PM 57.2 °F 46.4 °F 67% 30.18 in 10.0 mi SE 13.8 mph - N/A   Overcast
11:15 PM 59.0 °F 46.4 °F 63% 30.17 in 10.0 mi SE 17.3 mph - N/A   Overcast
11:35 PM 59.0 °F 46.4 °F 63% 30.16 in 10.0 mi SE 17.3 mph - N/A   Overcast
11:55 PM 59.0 °F 46.4 °F 63% 30.15 in 10.0 mi ESE 16.1 mph - N/A   Overcast